Time,TemperatureF,DewpointF,PressureIn,WindDirection,WindDirectionDegrees,WindSpeedMPH,WindSpeedGustMPH,Humidity,HourlyPrecipIn,Conditions,Clouds,dailyrainin,SolarRadiationWatts/m^2,SoftwareType,DateUTC
2013-03-06 00:01:00,21.0,19.0,-100.00,NNW,348,3.0,9.0,90,0.00,,,0.00,0.000000,,2013-03-06 06:01:00,
2013-03-06 00:32:00,21.0,19.0,-100.00,NNW,348,3.0,9.0,90,0.00,,,0.00,0.000000,,2013-03-06 06:32:00,
2013-03-06 00:42:00,21.0,19.0,-100.00,NNW,348,3.0,9.0,90,0.00,,,0.00,0.000000,,2013-03-06 06:42:00,
2013-03-06 00:52:00,21.0,19.0,-100.00,NNW,348,3.0,9.0,90,0.00,,,0.00,0.000000,,2013-03-06 06:52:00,
2013-03-06 01:01:00,20.0,17.0,-100.00,NE,34,4.0,9.0,89,0.00,,,0.00,0.000000,,2013-03-06 07:01:00,
2013-03-06 01:22:00,20.0,17.0,-100.00,NE,34,4.0,9.0,89,0.00,,,0.00,0.000000,,2013-03-06 07:22:00,
2013-03-06 01:32:00,20.0,17.0,-100.00,NE,34,4.0,9.0,89,0.00,,,0.00,0.000000,,2013-03-06 07:32:00,
2013-03-06 01:42:00,20.0,17.0,-100.00,NE,34,4.0,9.0,89,0.00,,,0.00,0.000000,,2013-03-06 07:42:00,
2013-03-06 01:52:00,20.0,17.0,-100.00,NE,34,4.0,9.0,89,0.00,,,0.00,0.000000,,2013-03-06 07:52:00,
2013-03-06 02:01:00,20.0,17.0,-100.00,NE,40,3.0,8.0,89,0.00,,,-99.99,0.000000,,2013-03-06 08:01:00,
2013-03-06 02:32:00,20.0,17.0,-100.00,NE,40,3.0,8.0,89,0.00,,,-99.99,0.000000,,2013-03-06 08:32:00,
2013-03-06 02:42:00,20.0,17.0,-100.00,NE,40,3.0,8.0,89,0.00,,,-99.99,0.000000,,2013-03-06 08:42:00,
2013-03-06 02:52:00,20.0,17.0,-100.00,NE,40,3.0,8.0,89,0.00,,,-99.99,0.000000,,2013-03-06 08:52:00,
2013-03-06 03:01:00,20.0,17.0,-100.00,NNW,341,4.0,6.0,89,0.00,,,0.00,0.000000,,2013-03-06 09:01:00,
2013-03-06 03:32:00,20.0,17.0,-100.00,NNW,341,4.0,6.0,89,0.00,,,0.00,0.000000,,2013-03-06 09:32:00,
2013-03-06 03:42:00,20.0,17.0,-100.00,NNW,341,4.0,6.0,89,0.00,,,0.00,0.000000,,2013-03-06 09:42:00,
2013-03-06 03:52:00,20.0,17.0,-100.00,NNW,341,4.0,6.0,89,0.00,,,0.00,0.000000,,2013-03-06 09:52:00,
2013-03-06 04:01:00,21.0,18.0,-100.00,NNW,346,3.0,7.0,89,0.00,,,0.00,0.000000,,2013-03-06 10:01:00,
2013-03-06 04:22:00,21.0,18.0,-100.00,NNW,346,3.0,7.0,89,0.00,,,0.00,0.000000,,2013-03-06 10:22:00,
2013-03-06 04:32:00,21.0,18.0,-100.00,NNW,346,3.0,7.0,89,0.00,,,0.00,0.000000,,2013-03-06 10:32:00,
2013-03-06 04:42:00,21.0,18.0,-100.00,NNW,346,3.0,7.0,89,0.00,,,0.00,0.000000,,2013-03-06 10:42:00,
2013-03-06 04:52:00,21.0,18.0,-100.00,NNW,346,3.0,7.0,89,0.00,,,0.00,0.000000,,2013-03-06 10:52:00,
2013-03-06 05:01:00,21.0,19.0,-100.00,NNW,346,3.0,6.0,90,0.00,,,0.00,0.000000,,2013-03-06 11:01:00,
2013-03-06 05:23:00,21.0,19.0,-100.00,NNW,346,3.0,6.0,90,0.00,,,0.00,0.000000,,2013-03-06 11:23:00,
2013-03-06 05:32:00,21.0,19.0,-100.00,NNW,346,3.0,6.0,90,0.00,,,0.00,0.000000,,2013-03-06 11:32:00,
2013-03-06 05:42:00,21.0,19.0,-100.00,NNW,346,3.0,6.0,90,0.00,,,0.00,0.000000,,2013-03-06 11:42:00,
2013-03-06 05:52:00,21.0,19.0,-100.00,NNW,346,3.0,6.0,90,0.00,,,0.00,0.000000,,2013-03-06 11:52:00,
2013-03-06 06:01:00,21.0,18.0,-100.00,NNW,339,4.0,7.0,89,0.00,,,0.00,0.000000,,2013-03-06 12:01:00,
2013-03-06 06:33:00,21.0,18.0,-100.00,NNW,339,4.0,7.0,89,0.00,,,0.00,0.000000,,2013-03-06 12:33:00,
2013-03-06 06:43:00,21.0,18.0,-100.00,NNW,339,4.0,7.0,89,0.00,,,0.00,0.000000,,2013-03-06 12:43:00,
2013-03-06 06:52:00,21.0,18.0,-100.00,NNW,339,4.0,7.0,89,0.00,,,0.00,0.000000,,2013-03-06 12:52:00,
2013-03-06 07:01:00,20.0,17.0,-100.00,North,349,3.0,8.0,89,0.00,,,0.00,4.000000,,2013-03-06 13:01:00,
2013-03-06 07:32:00,20.0,17.0,-100.00,North,349,3.0,8.0,89,0.00,,,0.00,4.000000,,2013-03-06 13:32:00,
2013-03-06 07:42:00,20.0,17.0,-100.00,North,349,3.0,8.0,89,0.00,,,0.00,4.000000,,2013-03-06 13:42:00,
2013-03-06 07:52:00,20.0,17.0,-100.00,North,349,3.0,8.0,89,0.00,,,0.00,4.000000,,2013-03-06 13:52:00,
2013-03-06 08:01:00,21.0,18.0,-100.00,NNW,339,3.0,6.0,87,0.00,,,0.00,22.000000,,2013-03-06 14:01:00,
2013-03-06 08:32:00,21.0,18.0,-100.00,NNW,339,3.0,6.0,87,0.00,,,0.00,22.000000,,2013-03-06 14:32:00,
2013-03-06 08:42:00,21.0,18.0,-100.00,NNW,339,3.0,6.0,87,0.00,,,0.00,22.000000,,2013-03-06 14:42:00,
2013-03-06 08:52:00,21.0,18.0,-100.00,NNW,339,3.0,6.0,87,0.00,,,0.00,22.000000,,2013-03-06 14:52:00,
2013-03-06 09:01:00,22.0,18.0,-100.00,NW,325,5.0,9.0,83,0.00,,,0.00,79.000000,,2013-03-06 15:01:00,
2013-03-06 09:22:00,22.0,18.0,-100.00,NW,325,5.0,9.0,83,0.00,,,0.00,79.000000,,2013-03-06 15:22:00,
2013-03-06 09:32:00,22.0,18.0,-100.00,NW,325,5.0,9.0,83,0.00,,,0.00,79.000000,,2013-03-06 15:32:00,
2013-03-06 09:42:00,22.0,18.0,-100.00,NW,325,5.0,9.0,83,0.00,,,0.00,79.000000,,2013-03-06 15:42:00,
2013-03-06 09:52:00,22.0,18.0,-100.00,NW,325,5.0,9.0,83,0.00,,,0.00,79.000000,,2013-03-06 15:52:00,
2013-03-06 10:01:00,22.0,15.0,-100.00,NW,320,7.0,12.0,74,0.00,,,0.00,167.000000,,2013-03-06 16:01:00,
2013-03-06 10:32:00,22.0,15.0,-100.00,NW,320,7.0,12.0,74,0.00,,,0.00,167.000000,,2013-03-06 16:32:00,
2013-03-06 10:42:00,22.0,15.0,-100.00,NW,320,7.0,12.0,74,0.00,,,0.00,167.000000,,2013-03-06 16:42:00,
2013-03-06 10:52:00,22.0,15.0,-100.00,NW,320,7.0,12.0,74,0.00,,,0.00,167.000000,,2013-03-06 16:52:00,
2013-03-06 11:01:00,22.0,13.0,-100.00,NNW,338,8.0,12.0,68,0.00,,,0.00,241.000000,,2013-03-06 17:01:00,
2013-03-06 11:22:00,22.0,13.0,-100.00,NNW,338,8.0,12.0,68,0.00,,,0.00,241.000000,,2013-03-06 17:22:00,
2013-03-06 11:32:00,22.0,13.0,-100.00,NNW,338,8.0,12.0,68,0.00,,,0.00,241.000000,,2013-03-06 17:32:00,
2013-03-06 11:42:00,22.0,13.0,-100.00,NNW,338,8.0,12.0,68,0.00,,,0.00,241.000000,,2013-03-06 17:42:00,
2013-03-06 11:53:00,22.0,13.0,-100.00,NNW,338,8.0,12.0,68,0.00,,,0.00,241.000000,,2013-03-06 17:53:00,
2013-03-06 12:01:00,25.0,14.0,-100.00,NW,307,6.0,13.0,62,0.00,,,0.00,333.000000,,2013-03-06 18:01:00,
2013-03-06 12:32:00,25.0,14.0,-100.00,NW,307,6.0,13.0,62,0.00,,,0.00,333.000000,,2013-03-06 18:32:00,
2013-03-06 12:42:00,25.0,14.0,-100.00,NW,307,6.0,13.0,62,0.00,,,0.00,333.000000,,2013-03-06 18:42:00,
2013-03-06 12:53:00,25.0,14.0,-100.00,NW,307,6.0,13.0,62,0.00,,,0.00,333.000000,,2013-03-06 18:53:00,
2013-03-06 13:01:00,27.0,14.0,-100.00,WNW,290,7.0,12.0,57,0.00,,,0.00,446.000000,,2013-03-06 19:01:00,
2013-03-06 13:32:00,27.0,14.0,-100.00,WNW,290,7.0,12.0,57,0.00,,,0.00,446.000000,,2013-03-06 19:32:00,
2013-03-06 13:43:00,27.0,14.0,-100.00,WNW,290,7.0,12.0,57,0.00,,,0.00,446.000000,,2013-03-06 19:43:00,
2013-03-06 13:53:00,27.0,14.0,-100.00,WNW,290,7.0,12.0,57,0.00,,,0.00,446.000000,,2013-03-06 19:53:00,
2013-03-06 14:01:00,28.0,12.0,-100.00,NNW,330,5.0,14.0,51,0.00,,,0.00,603.000000,,2013-03-06 20:01:00,
2013-03-06 14:22:00,28.0,12.0,-100.00,NNW,330,5.0,14.0,51,0.00,,,0.00,603.000000,,2013-03-06 20:22:00,
2013-03-06 14:33:00,28.0,12.0,-100.00,NNW,330,5.0,14.0,51,0.00,,,0.00,603.000000,,2013-03-06 20:33:00,
2013-03-06 14:43:00,28.0,12.0,-100.00,NNW,330,5.0,14.0,51,0.00,,,0.00,603.000000,,2013-03-06 20:43:00,
2013-03-06 14:53:00,28.0,12.0,-100.00,NNW,330,5.0,14.0,51,0.00,,,0.00,603.000000,,2013-03-06 20:53:00,
2013-03-06 15:01:00,28.0,13.0,-100.00,NNW,347,5.0,13.0,53,0.00,,,0.00,493.000000,,2013-03-06 21:01:00,
2013-03-06 15:33:00,28.0,13.0,-100.00,NNW,347,5.0,13.0,53,0.00,,,0.00,493.000000,,2013-03-06 21:33:00,
2013-03-06 15:42:00,28.0,13.0,-100.00,NNW,347,5.0,13.0,53,0.00,,,0.00,493.000000,,2013-03-06 21:42:00,
2013-03-06 15:52:00,28.0,13.0,-100.00,NNW,347,5.0,13.0,53,0.00,,,0.00,493.000000,,2013-03-06 21:52:00,
2013-03-06 16:01:00,26.0,13.0,-100.00,NW,322,6.0,11.0,57,0.00,,,0.00,270.000000,,2013-03-06 22:01:00,
2013-03-06 16:32:00,26.0,13.0,-100.00,NW,322,6.0,11.0,57,0.00,,,0.00,270.000000,,2013-03-06 22:32:00,
2013-03-06 16:42:00,26.0,13.0,-100.00,NW,322,6.0,11.0,57,0.00,,,0.00,270.000000,,2013-03-06 22:42:00,
2013-03-06 16:52:00,26.0,13.0,-100.00,NW,322,6.0,11.0,57,0.00,,,0.00,270.000000,,2013-03-06 22:52:00,
2013-03-06 17:01:00,24.0,12.0,-100.00,NNW,342,6.0,10.0,60,0.00,,,0.00,132.000000,,2013-03-06 23:01:00,
2013-03-06 17:32:00,24.0,12.0,-100.00,NNW,342,6.0,10.0,60,0.00,,,0.00,132.000000,,2013-03-06 23:32:00,
2013-03-06 17:42:00,24.0,12.0,-100.00,NNW,342,6.0,10.0,60,0.00,,,0.00,132.000000,,2013-03-06 23:42:00,
2013-03-06 17:52:00,24.0,12.0,-100.00,NNW,342,6.0,10.0,60,0.00,,,0.00,132.000000,,2013-03-06 23:52:00,
2013-03-06 18:01:00,20.0,11.0,-100.00,North,359,3.0,10.0,68,0.00,,,0.00,40.000000,,2013-03-07 00:01:00,
2013-03-06 18:22:00,20.0,11.0,-100.00,North,359,3.0,10.0,68,0.00,,,0.00,40.000000,,2013-03-07 00:22:00,
2013-03-06 18:32:00,20.0,11.0,-100.00,North,359,3.0,10.0,68,0.00,,,0.00,40.000000,,2013-03-07 00:32:00,
2013-03-06 18:42:00,20.0,11.0,-100.00,North,359,3.0,10.0,68,0.00,,,0.00,40.000000,,2013-03-07 00:42:00,
2013-03-06 18:52:00,20.0,11.0,-100.00,North,359,3.0,10.0,68,0.00,,,0.00,40.000000,,2013-03-07 00:52:00,
2013-03-06 19:01:00,13.0,7.0,-100.00,West,266,0.0,7.0,77,0.00,,,0.00,0.000000,,2013-03-07 01:01:00,
2013-03-06 19:22:00,13.0,7.0,-100.00,West,266,0.0,7.0,77,0.00,,,0.00,0.000000,,2013-03-07 01:22:00,
2013-03-06 19:32:00,13.0,7.0,-100.00,West,266,0.0,7.0,77,0.00,,,0.00,0.000000,,2013-03-07 01:32:00,
2013-03-06 19:42:00,13.0,7.0,-100.00,West,266,0.0,7.0,77,0.00,,,0.00,0.000000,,2013-03-07 01:42:00,
2013-03-06 19:52:00,13.0,7.0,-100.00,West,266,0.0,7.0,77,0.00,,,0.00,0.000000,,2013-03-07 01:52:00,
2013-03-06 20:01:00,12.0,8.0,-100.00,WSW,239,1.0,5.0,84,0.00,,,0.00,0.000000,,2013-03-07 02:01:00,
2013-03-06 20:32:00,12.0,8.0,-100.00,WSW,239,1.0,5.0,84,0.00,,,0.00,0.000000,,2013-03-07 02:32:00,
2013-03-06 20:42:00,12.0,8.0,-100.00,WSW,239,1.0,5.0,84,0.00,,,0.00,0.000000,,2013-03-07 02:42:00,
2013-03-06 20:52:00,12.0,8.0,-100.00,WSW,239,1.0,5.0,84,0.00,,,0.00,0.000000,,2013-03-07 02:52:00,
2013-03-06 21:01:00,15.0,11.0,-100.00,West,260,0.0,2.0,83,0.00,,,0.00,0.000000,,2013-03-07 03:01:00,
2013-03-06 21:22:00,15.0,11.0,-100.00,West,260,0.0,2.0,83,0.00,,,0.00,0.000000,,2013-03-07 03:22:00,
2013-03-06 21:32:00,15.0,11.0,-100.00,West,260,0.0,2.0,83,0.00,,,0.00,0.000000,,2013-03-07 03:32:00,
2013-03-06 21:42:00,15.0,11.0,-100.00,West,260,0.0,2.0,83,0.00,,,0.00,0.000000,,2013-03-07 03:42:00,
2013-03-06 21:52:00,15.0,11.0,-100.00,West,260,0.0,2.0,83,0.00,,,0.00,0.000000,,2013-03-07 03:52:00,
2013-03-06 22:01:00,15.0,11.0,-100.00,West,269,2.0,2.0,85,0.00,,,0.00,0.000000,,2013-03-07 04:01:00,
2013-03-06 22:22:00,15.0,11.0,-100.00,West,269,2.0,2.0,85,0.00,,,0.00,0.000000,,2013-03-07 04:22:00,
2013-03-06 22:32:00,15.0,11.0,-100.00,West,269,2.0,2.0,85,0.00,,,0.00,0.000000,,2013-03-07 04:32:00,
2013-03-06 22:42:00,15.0,11.0,-100.00,West,269,2.0,2.0,85,0.00,,,0.00,0.000000,,2013-03-07 04:42:00,
2013-03-06 22:52:00,15.0,11.0,-100.00,West,269,2.0,2.0,85,0.00,,,0.00,0.000000,,2013-03-07 04:52:00,
2013-03-06 23:01:00,16.0,13.0,-100.00,WSW,237,1.0,3.0,86,0.00,,,0.00,0.000000,,2013-03-07 05:01:00,
2013-03-06 23:32:00,16.0,13.0,-100.00,WSW,237,1.0,3.0,86,0.00,,,0.00,0.000000,,2013-03-07 05:32:00,
2013-03-06 23:42:00,16.0,13.0,-100.00,WSW,237,1.0,3.0,86,0.00,,,0.00,0.000000,,2013-03-07 05:42:00,
2013-03-06 23:52:00,16.0,13.0,-100.00,WSW,237,1.0,3.0,86,0.00,,,0.00,0.000000,,2013-03-07 05:52:00,